Belize, Belize

3:20 PM CST on May 24, 2017 (GMT -0600)
Philip S W Goldson International

Weather History for MZBZ - October, 2013

Change the Weather History Date:

Thursday, October 24, 2013

  Actual Average Record
Temperature  
Mean Temperature 81 °F -  
Max Temperature 85 °F 85 °F 89 °F (1998)
Min Temperature 77 °F 71 °F 66 °F (2011)
Cooling Degree Days 16    
Growing Degree Days 31 (Base 50)    
Moisture  
Dew Point 78 °F    
Average Humidity 81    
Maximum Humidity 94    
Minimum Humidity 50    
Precipitation  
Precipitation 0.00 in 0.26 in - ()
Sea Level Pressure  
Sea Level Pressure 29.88 in    
Wind  
Wind Speed 6 mph ()    
Max Wind Speed 15 mph    
Max Gust Speed -    
Visibility 8.0 miles    
Events Rain    
Averages and records for this station are not official NWS values.
T = Trace of Precipitation, MM = Missing Value Source: Averaged Metar Reports

Daily Weather History Graph

Daily Weather History Graph

Search for Another Location

Airport or City:

Trip Planner

Search our weather history database for the weather conditions in past years. The results will help you decide how hot, cold, wet, or windy it might be!

Date:

Astronomy

Oct. 24, 2013 Rise Set
Actual Time 5:49 AM CST 5:25 PM CST
Civil Twilight 5:26 AM CST 5:47 PM CST
Nautical Twilight 5:01 AM CST 6:13 PM CST
Astronomical Twilight 4:35 AM CST 6:38 PM CST
Moon 10:06 PM CST 10:31 AM CST
Length of Visible Light 12h 20m
Length of Day
11h 36m
Waning Gibbous, 70% of the Moon is Illuminated
Oct 24
Waning Gibbous
Oct 26
Last Quarter
Nov 3
New
Nov 9
First Quarter
Nov 17
Full

Hourly Weather History & Observations

Time (CST) Temp. Heat Index Dew Point Humidity Pressure Visibility Wind Dir Wind Speed Gust Speed Precip Events Conditions
12:00 AM 81 °F - 75 °F 76% 29.88 in 12 mi East 4.6 mph - -   Mostly Cloudy
3:00 AM 81 °F - 78 °F 88% 29.84 in 12 mi East 4.6 mph - -   Partly Cloudy
5:00 AM 80.6 °F 87.1 °F 77.0 °F 89% 29.86 in 6.2 mi Calm Calm - N/A   Mostly Cloudy
6:00 AM 79 °F - 76 °F 87% 29.89 in 12 mi SSW 2.3 mph - -   Partly Cloudy
6:00 AM 78.8 °F - 75.2 °F 89% 29.89 in 6.2 mi SSW 2.3 mph - N/A   Mostly Cloudy
8:00 AM 86.0 °F 96.9 °F 77.0 °F 74% 29.89 in 6.2 mi East 6.9 mph - N/A   Mostly Cloudy
9:00 AM 85 °F - 78 °F 73% 29.93 in 12 mi East 10.4 mph - -   Partly Cloudy
9:00 AM 86.0 °F 96.9 °F 77.0 °F 74% 29.92 in 6.2 mi East 10.4 mph - N/A   Mostly Cloudy
10:00 AM 102.2 °F 124.9 °F 80.6 °F 50% 29.92 in 6.2 mi East 9.2 mph - N/A   Mostly Cloudy
10:04 AM 84.2 °F 98.3 °F 80.6 °F 89% 29.92 in 1.9 mi East 10.4 mph - N/A Rain Rain Showers
10:12 AM 84.2 °F 98.3 °F 80.6 °F 89% 29.92 in 5.0 mi ENE 15.0 mph - N/A   Mostly Cloudy
11:00 AM 77.0 °F - 75.2 °F 94% 2.99 in 5.6 mi East 6.9 mph - N/A Rain Light Rain Showers
12:00 PM 85 °F - 78 °F 76% 29.87 in 12 mi East 9.2 mph - -  
12:00 PM 84.2 °F 96.1 °F 78.8 °F 84% 29.86 in 6.2 mi East 9.2 mph - N/A   Mostly Cloudy
1:00 PM 86.0 °F 101.9 °F 80.6 °F 84% 29.84 in 6.2 mi East 9.2 mph - N/A   Mostly Cloudy
2:00 PM 86.0 °F 99.3 °F 78.8 °F 79% 29.83 in 6.2 mi ESE 5.8 mph - N/A   Mostly Cloudy
3:00 PM 84 °F - 78 °F 76% 29.83 in 12 mi East 8.1 mph - -   Partly Cloudy
3:00 PM 84.2 °F 94.1 °F 77.0 °F 79% 29.82 in 6.2 mi East 8.1 mph - N/A   Mostly Cloudy
4:00 PM 80.6 °F 86.2 °F 75.2 °F 84% 2.98 in 6.2 mi East 8.1 mph - N/A Rain Light Rain Showers
5:00 PM 82.4 °F 92.4 °F 78.8 °F 89% 29.85 in 6.2 mi East 8.1 mph - N/A   Mostly Cloudy
6:00 PM 82 °F - 76 °F 78% 29.87 in 12 mi East 8.1 mph - -   Partly Cloudy
6:00 PM 82.4 °F 90.9 °F 77.0 °F 84% 29.87 in 6.2 mi East 8.1 mph - N/A   Mostly Cloudy
9:00 PM 82 °F - 77 °F 80% 29.94 in 12 mi East 8.1 mph - -   Partly Cloudy